TimePST,TemperatureF,Dew PointF,Humidity,Sea Level PressureIn,VisibilityMPH,Wind Direction,Wind SpeedMPH,Gust SpeedMPH,PrecipitationIn,Events,Conditions,WindDirDegrees,DateUTC
12:53 AM,55.9,46.0,69,29.83,9.0,ESE,6.9,-,0.02,Rain,Light Rain,120,2013-03-08 08:53:00
1:53 AM,54.0,46.0,75,29.80,7.0,ESE,8.1,-,0.05,Rain,Rain,110,2013-03-08 09:53:00
2:37 AM,53.6,46.4,77,29.80,2.5,West,10.4,17.3,0.09,Rain,Heavy Rain,280,2013-03-08 10:37:00
2:42 AM,51.8,46.4,82,29.80,1.8,WNW,9.2,17.3,0.14,Rain,Heavy Rain,300,2013-03-08 10:42:00
2:53 AM,50.0,45.0,83,29.80,1.5,WNW,6.9,-,0.23,Rain,Heavy Rain,290,2013-03-08 10:53:00
2:59 AM,50.0,44.6,82,29.80,3.0,West,4.6,-,0.01,Rain,Rain,280,2013-03-08 10:59:00
3:09 AM,51.8,46.4,82,29.80,5.0,NW,4.6,-,0.03,Rain,Rain,310,2013-03-08 11:09:00
3:25 AM,51.8,46.4,82,29.80,9.0,West,5.8,-,0.03,Rain,Light Rain,280,2013-03-08 11:25:00
3:32 AM,51.8,46.4,82,29.81,6.0,West,8.1,-,0.04,Rain,Light Rain,270,2013-03-08 11:32:00
3:39 AM,51.8,46.4,82,29.81,3.0,West,6.9,-,0.06,Rain,Rain,280,2013-03-08 11:39:00
3:50 AM,51.8,46.4,82,29.81,3.0,West,4.6,-,0.08,Rain,Rain,280,2013-03-08 11:50:00
3:53 AM,51.1,46.9,86,29.81,3.0,Variable,4.6,-,0.09,Rain,Rain,0,2013-03-08 11:53:00
4:01 AM,51.8,46.4,82,29.80,2.5,NNW,8.1,-,0.04,Rain,Heavy Rain,340,2013-03-08 12:01:00
4:10 AM,50.0,44.6,82,29.79,5.0,Variable,4.6,-,0.06,Rain,Rain,0,2013-03-08 12:10:00
4:53 AM,50.0,45.0,83,29.81,10.0,Calm,Calm,-,0.07,Rain,Light Rain,0,2013-03-08 12:53:00
5:42 AM,51.8,44.6,76,29.82,10.0,South,3.5,-,0.00,,Overcast,190,2013-03-08 13:42:00
5:53 AM,51.1,45.0,80,29.83,10.0,SSW,3.5,-,0.00,,Overcast,200,2013-03-08 13:53:00
6:11 AM,51.8,44.6,76,29.82,10.0,Calm,Calm,-,0.00,,Overcast,0,2013-03-08 14:11:00
6:53 AM,51.1,45.0,80,29.86,10.0,South,4.6,-,0.00,,Mostly Cloudy,170,2013-03-08 14:53:00
7:53 AM,53.1,45.0,74,29.88,10.0,SSE,3.5,-,N/A,,Partly Cloudy,150,2013-03-08 15:53:00
8:53 AM,55.0,43.0,64,29.88,10.0,Variable,3.5,-,N/A,,Scattered Clouds,0,2013-03-08 16:53:00
9:53 AM,55.9,39.9,55,29.89,10.0,West,4.6,-,N/A,,Overcast,280,2013-03-08 17:53:00
10:53 AM,51.1,39.9,66,29.90,3.0,SSW,4.6,17.3,0.14,Rain,Heavy Rain,200,2013-03-08 18:53:00
11:00 AM,51.8,39.2,62,29.89,2.0,SSE,6.9,-,0.01,Rain,Light Rain,150,2013-03-08 19:00:00
11:07 AM,53.6,42.8,67,29.90,4.0,SSE,5.8,-,0.02,Rain,Rain,150,2013-03-08 19:07:00
11:53 AM,53.1,42.1,66,29.90,10.0,SW,5.8,-,0.02,,Overcast,230,2013-03-08 19:53:00
12:53 PM,57.0,45.0,64,29.90,10.0,SSW,12.7,19.6,N/A,,Scattered Clouds,200,2013-03-08 20:53:00
1:53 PM,57.9,39.9,51,29.89,10.0,Variable,6.9,-,N/A,,Partly Cloudy,0,2013-03-08 21:53:00
2:53 PM,57.9,39.9,51,29.89,10.0,Variable,5.8,-,0.00,Rain,Light Rain,0,2013-03-08 22:53:00
3:53 PM,57.0,42.1,57,29.89,10.0,Variable,5.8,-,0.00,,Overcast,0,2013-03-08 23:53:00
4:53 PM,57.9,39.0,49,29.90,10.0,WSW,5.8,-,N/A,,Overcast,250,2013-03-09 00:53:00
5:53 PM,57.0,41.0,55,29.94,10.0,Variable,4.6,-,N/A,,Overcast,0,2013-03-09 01:53:00
6:53 PM,57.0,43.0,59,29.97,10.0,SW,8.1,-,N/A,,Overcast,220,2013-03-09 02:53:00
7:53 PM,55.9,45.0,67,29.99,10.0,SW,5.8,-,0.00,Rain,Light Rain,220,2013-03-09 03:53:00
8:53 PM,55.9,46.9,72,30.01,10.0,South,3.5,-,0.01,,Overcast,190,2013-03-09 04:53:00
9:16 PM,55.4,48.2,77,30.01,10.0,Calm,Calm,-,N/A,,Overcast,0,2013-03-09 05:16:00
9:24 PM,55.4,46.4,72,30.01,10.0,Calm,Calm,-,N/A,,Overcast,0,2013-03-09 05:24:00
9:53 PM,57.0,46.9,69,30.02,10.0,SW,6.9,-,N/A,,Overcast,230,2013-03-09 05:53:00
10:53 PM,55.0,46.0,72,30.02,10.0,Calm,Calm,-,N/A,,Scattered Clouds,0,2013-03-09 06:53:00
11:53 PM,55.0,46.0,72,30.01,10.0,South,4.6,-,N/A,,Overcast,180,2013-03-09 07:53:00